Simultaneous Nadir Overpasses (SNOs) Predictions

Prediction of SNOs between LANDSAT-8 and NOAA-19 Satellite Orbit:

Table of predicted SNOs for the next 14.0 days since TLE Epoch: 3/1/2025
Index Date (LANDSAT-8) Time (LANDSAT-8) Lat,Lon (LANDSAT-8) SZA (LANDSAT-8 ) Date (NOAA-19) Time (NOAA-19) Lat,Lon (NOAA-19) SZA (NOAA-19 ) Distance(km) Time Diff (sec)
1 03/03/2025 06:42:40 -79.59, -76.36 93.06 03/03/2025 06:42:38 -79.59, -76.41 93.07 1.12 2
2 03/05/2025 13:05:54 -79.46,-173.09 94.11 03/05/2025 13:04:58 -79.45,-173.19 94.13 2.26 56
3 03/05/2025 13:55:15 79.64, -4.16 86.14 03/05/2025 13:55:50 79.63, -4.25 86.13 1.93 35
4 03/07/2025 20:18:28 79.51,-100.86 85.09 03/07/2025 20:18:10 79.51,-100.98 85.07 2.45 18
5 03/07/2025 21:07:51 -79.67, 67.91 94.71 03/07/2025 21:09:03 -79.66, 67.76 94.71 3.25 72
6 03/10/2025 02:41:39 79.43, 162.78 84.10 03/10/2025 02:40:28 79.43, 162.79 84.08 0.44 71
7 03/10/2025 03:31:02 -79.59, -28.46 95.70 03/10/2025 03:31:20 -79.60, -28.37 95.68 1.84 18
8 03/12/2025 09:54:14 -79.44,-125.27 96.78 03/12/2025 09:53:40 -79.43,-125.41 96.81 2.98 34
9 03/12/2025 10:43:33 79.66, 43.86 83.51 03/12/2025 10:44:31 79.66, 43.99 83.54 2.55 58



Historial Predications of SNOs between LANDSAT-8 and NOAA-19
